Location: Ostrava
(49.8330°N, 18.2830°E)
Time: 05:51:10
(UTC+01:00)

Cosmos 2219 Rocket - Visible Passes

Search period start: 30 January 2015 00:00
Search period end: 09 February 2015 00:00
Orbit: 829 x 846 km, 71.0° (Epoch: 29 January)

Date Brightness Start Highest point End Pass type
(mag) Time Alt. Az. Time Alt. Az. Time Alt. Az.
30 Jan 4.5 05:11:07 10° N 05:14:38 17° NNE 05:18:16 10° ENE visible
31 Jan 4.5 04:54:53 10° N 04:58:16 16° NNE 05:01:46 10° ENE visible
31 Jan 2.8 06:38:02 10° NNW 06:43:35 57° NE 06:49:05 10° SE visible
01 Feb 4.6 04:38:40 10° N 04:41:54 16° NNE 04:45:15 10° ENE visible
01 Feb 2.9 06:21:46 10° NNW 06:27:16 53° NE 06:32:45 10° SE visible
02 Feb 4.6 04:22:26 10° N 04:25:32 15° NNE 04:28:44 10° ENE visible
02 Feb 3.0 06:05:30 10° NNW 06:10:58 50° NE 06:16:24 10° SE visible
03 Feb 4.7 04:06:13 10° N 04:09:10 14° NNE 04:12:13 10° ENE visible
03 Feb 3.1 05:49:14 10° NNW 05:54:39 48° NE 06:00:03 10° SE visible
04 Feb 4.7 03:50:01 10° N 03:52:47 14° NNE 03:55:42 10° ENE visible
04 Feb 3.2 05:32:57 10° NNW 05:38:21 45° NE 05:43:42 10° SE visible
05 Feb 4.7 03:33:55 10° N 03:36:24 13° NNE 03:39:09 10° NE visible
05 Feb 3.3 05:16:42 10° NNW 05:22:01 42° NE 05:27:20 10° ESE visible
06 Feb 4.8 03:18:04 11° N 03:20:02 13° NNE 03:22:35 10° NE visible
06 Feb 3.4 05:00:26 10° NNW 05:05:42 40° NE 05:10:58 10° ESE visible
07 Feb 4.8 03:02:14 11° N 03:03:39 12° NNE 03:06:02 10° NE visible
07 Feb 3.5 04:44:10 10° NNW 04:49:23 38° NE 04:54:36 10° ESE visible
07 Feb 2.6 06:28:10 10° NW 06:33:29 44° WSW 06:38:43 10° S visible
08 Feb 4.9 02:46:28 12° NNE 02:47:16 12° NNE 02:49:27 10° NE visible
08 Feb 3.5 04:28:12 11° NNW 04:33:04 36° NE 04:38:13 10° ESE visible
08 Feb 2.5 06:11:51 10° NW 06:17:13 47° WSW 06:22:31 10° S visible
